TimeCDT,TemperatureF,Dew PointF,Humidity,Sea Level PressureIn,VisibilityMPH,Wind Direction,Wind SpeedMPH,Gust SpeedMPH,PrecipitationIn,Events,Conditions,WindDirDegrees,DateUTC
1:53 AM,35.1,30.0,82,30.06,10.0,East,3.5,-,N/A,,Clear,90,2011-10-21 06:53:00
2:53 AM,35.1,30.9,85,30.06,10.0,ENE,3.5,-,N/A,,Clear,70,2011-10-21 07:53:00
3:53 AM,33.8,30.2,87,30.02,10.0,Calm,Calm,-,N/A,,Clear,0,2011-10-21 08:53:00
4:53 AM,30.0,28.0,92,30.06,10.0,Calm,Calm,-,N/A,,Clear,0,2011-10-21 09:53:00
5:53 AM,30.0,27.0,88,30.07,10.0,Calm,Calm,-,N/A,,Clear,0,2011-10-21 10:53:00
6:53 AM,30.0,27.0,88,30.08,10.0,NNW,3.5,-,N/A,,Clear,330,2011-10-21 11:53:00
7:53 AM,28.9,26.1,89,30.11,10.0,Calm,Calm,-,N/A,,Clear,0,2011-10-21 12:53:00
8:53 AM,33.1,30.0,89,30.13,10.0,Calm,Calm,-,N/A,,Clear,0,2011-10-21 13:53:00
9:53 AM,44.6,37.4,76,30.08,10.0,Calm,Calm,-,N/A,,Clear,0,2011-10-21 14:53:00
10:53 AM,55.9,39.0,53,30.10,10.0,NW,5.8,-,N/A,,Clear,320,2011-10-21 15:53:00
11:53 AM,63.0,39.0,41,30.09,10.0,NNW,3.5,-,N/A,,Clear,330,2011-10-21 16:53:00
12:53 PM,69.1,41.0,36,30.08,10.0,North,5.8,-,N/A,,Clear,350,2011-10-21 17:53:00
1:53 PM,72.0,39.9,31,30.05,10.0,Variable,3.5,-,N/A,,Clear,0,2011-10-21 18:53:00
2:53 PM,73.0,39.0,29,30.05,10.0,NNW,12.7,18.4,N/A,,Clear,330,2011-10-21 19:53:00
3:53 PM,73.0,37.9,28,30.04,10.0,NW,5.8,-,N/A,,Clear,310,2011-10-21 20:53:00
4:53 PM,73.0,36.0,26,30.05,10.0,North,8.1,-,N/A,,Clear,10,2011-10-21 21:53:00
5:53 PM,66.9,39.0,36,30.06,10.0,NNE,4.6,-,N/A,,Clear,30,2011-10-21 22:53:00
6:53 PM,60.1,41.0,49,30.09,10.0,North,4.6,-,N/A,,Clear,350,2011-10-21 23:53:00
7:53 PM,50.0,39.9,68,30.11,10.0,Calm,Calm,-,N/A,,Clear,0,2011-10-22 00:53:00
8:53 PM,53.1,41.0,64,30.12,10.0,NW,3.5,-,N/A,,Scattered Clouds,320,2011-10-22 01:53:00
9:53 PM,54.0,39.9,59,30.11,10.0,Calm,Calm,-,N/A,,Clear,0,2011-10-22 02:53:00
10:53 PM,46.9,37.9,71,30.12,10.0,Calm,Calm,-,N/A,,Clear,0,2011-10-22 03:53:00
11:53 PM,51.1,37.9,61,30.12,10.0,Calm,Calm,-,N/A,,Clear,0,2011-10-22 04:53:00